Weather History for Gastonia, NC

Change the Weather History Date:

Friday, April 19, 2013

  Actual Average (KCLT) Record (KCLT)
Temperature  
Mean Temperature 66 °F 60 °F  
Max Temperature 78 °F 73 °F 89 °F (1955)
Min Temperature 54 °F 48 °F 30 °F (1983)
Degree Days  
Heating Degree Days 0 6  
Month to date heating degree days 148  
Since 1 July heating degree days 3280  
Cooling Degree Days 2 1  
Month to date cooling degree days 18  
Year to date cooling degree days 23  
Growing Degree Days 16 (Base 50)    
Moisture  
Dew Point 63 °F    
Average Humidity 84    
Maximum Humidity 94    
Minimum Humidity 57    
Precipitation  
Precipitation 0.23 in 0.10 in 2.08 in (2014)
Month to date precipitation 1.93  
Year to date precipitation 12.67  
Snow  
Snow 0.00 in 0.00 in 0.00 in ()
Month to date snowfall 0.0  
Since 1 July snowfall 4.3  
Snow Depth -    
Sea Level Pressure  
Sea Level Pressure 29.84 in    
Wind  
Wind Speed 7 mph (SSW)    
Max Wind Speed 14 mph    
Max Gust Speed 33 mph    
Visibility 9 miles    
Events Rain , Thunderstorm    
T = Trace of Precipitation, MM = Missing Value Source: NWS Daily Summary

Daily Weather History Graph

Daily Weather History Graph

Search for Another Location

Airport:

Trip Planner

Search our weather history database for the weather conditions in past years. The results will help you decide how hot, cold, wet, or windy it might be!

Date:

Astronomy

Apr. 19, 2013 Rise Set
Actual Time 6:47 AM EDT 8:00 PM EDT
Civil Twilight 6:20 AM EDT 8:27 PM EDT
Nautical Twilight 5:49 AM EDT 8:58 PM EDT
Astronomical Twilight 5:16 AM EDT 9:31 PM EDT
Moon 1:57 PM EDT (4/19) 2:47 AM EDT (4/19)
Length of Visible Light 14h 06m
Length of Day
13h 13m
First Quarter, 61% of the Moon is Illuminated
Apr 19
First Quarter
Apr 25
Full
May 2
Last Quarter
May 9
New
May 18
First Quarter

Hourly Weather History & Observations

Time (EDT) Temp. Dew Point Humidity Pressure Visibility Wind Dir Wind Speed Gust Speed Precip Events Conditions
12:54 AM 66.9 °F 60.1 °F 79% 29.98 in 10.0 mi South 4.6 mph - N/A   Clear
1:54 AM 66.0 °F 61.0 °F 84% 29.96 in 10.0 mi South 5.8 mph - N/A   Mostly Cloudy
2:16 AM 66.2 °F 62.6 °F 88% 29.96 in 10.0 mi South 8.1 mph - N/A   Overcast
2:54 AM 64.9 °F 62.1 °F 90% 29.92 in 10.0 mi Variable 4.6 mph - N/A   Overcast
3:54 AM 66.0 °F 63.0 °F 90% 29.91 in 10.0 mi South 10.4 mph - N/A   Overcast
4:54 AM 66.0 °F 63.0 °F 90% 29.89 in 10.0 mi South 10.4 mph 17.3 mph N/A   Overcast
5:54 AM 66.0 °F 63.0 °F 90% 29.88 in 10.0 mi Variable 5.8 mph - N/A   Overcast
6:13 AM 64.4 °F 62.6 °F 94% 29.89 in 10.0 mi South 5.8 mph - N/A   Scattered Clouds
6:54 AM 64.9 °F 63.0 °F 93% 29.87 in 10.0 mi South 5.8 mph - N/A   Scattered Clouds
7:03 AM 66.2 °F 62.6 °F 88% 29.89 in 10.0 mi South 6.9 mph - N/A   Mostly Cloudy
7:54 AM 66.9 °F 64.0 °F 90% 29.89 in 10.0 mi South 8.1 mph 19.6 mph N/A   Overcast
8:54 AM 68.0 °F 64.0 °F 87% 29.89 in 10.0 mi Variable 3.5 mph - N/A   Overcast
9:49 AM 69.8 °F 64.4 °F 83% 29.88 in 10.0 mi South 8.1 mph 18.4 mph N/A   Overcast
9:54 AM 71.1 °F 64.9 °F 81% 29.86 in 10.0 mi South 12.7 mph 23.0 mph N/A   Overcast
10:54 AM 73.0 °F 64.9 °F 76% 29.84 in 10.0 mi South 10.4 mph 19.6 mph N/A   Mostly Cloudy
11:51 AM 75.2 °F 66.2 °F 73% 29.84 in 10.0 mi South 8.1 mph 18.4 mph N/A   Overcast
11:54 AM 75.0 °F 66.0 °F 73% 29.82 in 10.0 mi South 9.2 mph 18.4 mph N/A   Overcast
12:54 PM 77.0 °F 64.9 °F 66% 29.78 in 10.0 mi South 8.1 mph 17.3 mph N/A   Mostly Cloudy
1:54 PM 78.1 °F 64.0 °F 62% 29.76 in 10.0 mi SSW 11.5 mph 20.7 mph N/A   Overcast
2:54 PM 77.0 °F 63.0 °F 62% 29.77 in 10.0 mi SSW 8.1 mph 24.2 mph N/A   Mostly Cloudy
3:01 PM 78.8 °F 62.6 °F 57% 29.78 in 10.0 mi SSW 10.4 mph 20.7 mph N/A Thunderstorm Mostly Cloudy
3:16 PM 73.4 °F 64.4 °F 73% 29.79 in 3.0 mi SSW 13.8 mph 31.1 mph 0.03 in Rain Light Rain
3:54 PM 71.1 °F 66.9 °F 87% 29.76 in 10.0 mi South 5.8 mph - 0.04 in   Partly Cloudy
4:20 PM 69.8 °F 66.2 °F 88% 29.79 in 1.8 mi West 8.1 mph - 0.05 in Rain , Thunderstorm Heavy Thunderstorms and Rain
4:31 PM 69.8 °F 66.2 °F 88% 29.79 in 3.0 mi SW 11.5 mph 33.4 mph 0.08 in Rain , Thunderstorm Light Thunderstorms and Rain
4:42 PM 69.8 °F 66.2 °F 88% 29.80 in 8.0 mi SW 11.5 mph 25.3 mph 0.09 in Rain Light Rain
4:54 PM 68.0 °F 66.0 °F 93% 29.78 in 6.0 mi SW 11.5 mph 16.1 mph 0.10 in Rain Light Rain
5:07 PM 68.0 °F 66.2 °F 94% 29.81 in 9.0 mi Variable 5.8 mph - 0.01 in Rain Light Rain
5:27 PM 68.0 °F 64.4 °F 88% 29.79 in 8.0 mi SW 8.1 mph - 0.02 in Rain Light Rain
5:54 PM 66.0 °F 64.0 °F 93% 29.78 in 8.0 mi Variable 6.9 mph - 0.03 in Rain Light Rain
6:54 PM 64.0 °F 62.1 °F 93% 29.78 in 10.0 mi Variable 6.9 mph - 0.01 in Rain Light Rain
7:54 PM 61.0 °F 59.0 °F 93% 29.78 in 10.0 mi Variable 6.9 mph - 0.04 in Rain Light Rain
8:54 PM 57.9 °F 52.0 °F 81% 29.81 in 10.0 mi Variable 5.8 mph - 0.01 in Rain Light Rain
9:54 PM 57.0 °F 52.0 °F 83% 29.84 in 10.0 mi Variable 5.8 mph - 0.00 in   Clear
10:54 PM 55.0 °F 52.0 °F 89% 29.88 in 10.0 mi SW 8.1 mph - N/A   Mostly Cloudy
11:54 PM 54.0 °F 51.1 °F 90% 29.90 in 10.0 mi WSW 5.8 mph - N/A   Overcast